Regional Weather Roundup
Issued by NWS Jackson, KY

Home | Current Version | Previous Version | Graphics & Text | Print | Product List | Glossary On
Versions: 1 2 3 4 5 6 7 8 9 10 11 12 13 14 15 16 17 18 19 20 21 22 23 24 25 26 27
000
ASUS43 KJKL 271310
RWRJKL

EAST KENTUCKY HOURLY WEATHER ROUNDUP
NATIONAL WEATHER SERVICE JACKSON KY
900 AM EDT TUE SEP 27 2016

NOTE: "FAIR" INDICATES FEW OR NO CLOUDS BELOW 12,000 FEET WITH
NO SIGNIFICANT WEATHER AND/OR OBSTRUCTIONS TO VISIBILITY.

* THESE REPORTS ARE NOT UNDER NWS QUALITY CONTROL AND MAY NOT
  REPORT WEATHER SUCH AS PRECIPITATION AND FOG.

KYZ079-080-083-085-087-088-110-112-115-119-120-271400
...EASTERN KENTUCKY...

CITY           SKY/WX    TMP DP  RH WIND       PRES   REMARKS
JACKSON        FOG       52  52 100 CALM      30.04F VSB<1/4
LONDON         PTSUNNY   50  48  93 CALM      30.05F FOG
SOMERSET*      FOG       50  50 100 CALM      30.07S VSB<1/4
MONTICELLO*    FOG       52  52 100 N8        30.07F VSB<1/4
WILLIAMSBURG*  CLOUDY    52  52 100 CALM      30.05F VSB<1/4
MIDDLESBORO*   MOSUNNY   60  50  70 NW3       30.05S
HARLAN APT*    MOSUNNY   59  52  77 CALM      30.05F
PIKE CO APT*     N/A     55  55  99 CALM      30.04F
BIG SANDY APT* FOG       53  53 100 CALM      30.04F VSB<1/4
MOREHEAD APT*  SUNNY     54  54 100 CALM      30.05F
ASHLAND*       SUNNY     55  52  88 CALM      30.02S
$$

KYZ035-036-041-042-044-050-067-078-099-271400
...CENTRAL KENTUCKY...

CITY           SKY/WX    TMP DP  RH WIND       PRES   REMARKS
MT STERLING*   MOSUNNY   52  52 100 SW6       30.05F
FLEMING/MASON* SUNNY     52  50  93 S6        30.04S
DANVILLE*      SUNNY     50  50 100 S3        30.06S
LEXINGTON      SUNNY     54  51  90 S5        30.04S
FRANKFORT      SUNNY     54  51  90 SW5       30.03R
LOUISVILLE     MOSUNNY   56  49  77 S5        30.03R
LEBANON*         N/A     55  50  82 S3        30.05R
GLASGOW*       FOG       49  49 100 CALM      30.05S VSB<1/4
BOWLING GREEN  MOSUNNY   52  51  97 CALM      30.06S
$$

KYZ091>093-OHZ055-061-077-WVZ005-015-034-035-042-271400
...SOUTHERN OHIO/WEST VIRGINIA...

CITY           SKY/WX    TMP DP  RH WIND       PRES   REMARKS
COVINGTON      SUNNY     53  51  93 S6        30.00S
COLUMBUS       SUNNY     52  51  97 S8        29.96F
DAYTON         SUNNY     54  44  69 SW14      29.97S
WILMINGTON     SUNNY     53  50  89 S7        29.99S
HUNTINGTON     MOSUNNY   53  52  96 SW5       30.03S
CHARLESTON     FOG       56  55  97 SE5       30.04R VSB 1
PINEVILLE*     MOSUNNY   52  50  90 MISG      30.10S
BECKLEY        MOSUNNY   54  49  83 CALM      30.06S
BLUEFIELD      CLOUDY    55  52  89 W5        30.07S
LOGAN CO APT*  FOG       54  54 100 CALM      30.04S VSB<1/4
$$

VAZ002-007-008-TNZ017-027-036-066-071-271400
...SOUTHWEST VIRGINIA/EAST TENNESSEE...

CITY           SKY/WX    TMP DP  RH WIND       PRES   REMARKS
WISE*          PTSUNNY   55  55 100 N3        30.08S
JONESVILLE*      N/A     63  52  67 CALM      30.06S
ABINGDON*      CLOUDY    65  62  91 NW3       30.04S
BRISTOL        CLOUDY    64  61  90 CALM      30.02S
MORRISTOWN*    CLOUDY    64  61  88 NW5       30.01S
SEVIERVILLE*   CLOUDY    64  61  88 W3        30.02S
KNOXVILLE      CLOUDY    62  54  74 CALM      30.02R
OAK RIDGE      CLOUDY    64  45  49 E3        30.04R
CROSSVILLE     SUNNY     59  48  67 NE5       30.06S
NASHVILLE      MOSUNNY   59  54  83 CALM      30.06S
$$

...KEY TO REMARKS...
VSB - VISIBILITY IN MILES
WCI - WIND CHILL INDEX
HX  - HEAT INDEX

$$




USA.gov is the U.S. government's official web portal to all federal, state and local government web resources and services.